Liberia, Costa Rica

11:59 AM CST on June 23, 2017 (GMT -0600)
Liberia

Weather History for 78774 - February, 2013

Change the Weather History Date:

Friday, February 22, 2013

  Actual Average Record
Temperature  
Mean Temperature 84 °F -  
Max Temperature 96 °F 91 °F - ()
Min Temperature 72 °F 75 °F - ()
Cooling Degree Days 19    
Growing Degree Days 34 (Base 50)    
Moisture  
Dew Point 63 °F    
Average Humidity 45    
Maximum Humidity 65    
Minimum Humidity 25    
Precipitation  
Precipitation 0.00 in - - ()
Sea Level Pressure  
Sea Level Pressure 29.81 in    
Wind  
Wind Speed 12 mph ()    
Max Wind Speed 20 mph    
Max Gust Speed -    
Visibility 8.8 miles    
Events      
T = Trace of Precipitation, MM = Missing Value Source: Averaged Metar Reports

Daily Weather History Graph

Daily Weather History Graph

Search for Another Location

Airport or City:

Trip Planner

Search our weather history database for the weather conditions in past years. The results will help you decide how hot, cold, wet, or windy it might be!

Date:

Astronomy

Feb. 22, 2013 Rise Set
Actual Time 5:59 AM CST 5:51 PM CST
Civil Twilight 5:38 AM CST 6:12 PM CST
Nautical Twilight 5:13 AM CST 6:37 PM CST
Astronomical Twilight 4:48 AM CST 7:01 PM CST
Moon 3:20 PM CST (2/22) 3:22 AM CST (2/22)
Length of Visible Light 12h 34m
Length of Day
11h 51m
Waxing Gibbous, 90% of the Moon is Illuminated
Feb 22
Waxing Gibbous
Feb 25
Full
Mar 4
Last Quarter
Mar 11
New
Mar 19
First Quarter

Hourly Weather History & Observations

Time (CST) Temp. Heat Index Dew Point Humidity Pressure Visibility Wind Dir Wind Speed Gust Speed Precip Events Conditions
6:00 AM 78 °F - 65 °F 55% 29.82 in 12 mi East 11.5 mph - -   Clear
6:00 AM 77.0 °F - 64.4 °F 65% 29.80 in - East 11.5 mph - N/A   Clear
7:00 AM 78.8 °F - 66.2 °F 65% 29.84 in - East 8.1 mph - N/A   Clear
8:00 AM 84.2 °F 85.6 °F 64.4 °F 51% 29.85 in - East 11.5 mph - N/A   Clear
9:00 AM 87 °F - 63 °F 35% 29.88 in 12 mi East 12.7 mph - -   Clear
9:00 AM 87.8 °F 88.5 °F 62.6 °F 43% 29.87 in - East 12.7 mph - N/A   Clear
10:00 AM 89.6 °F 90.1 °F 62.6 °F 40% 29.87 in - NE 13.8 mph - N/A   Clear
11:00 AM 91.4 °F 92.1 °F 62.6 °F 38% 29.85 in 6.2 mi NE 13.8 mph - N/A   Partly Cloudy
12:00 PM 92 °F - 61 °F 25% 29.84 in 12 mi NE 15.0 mph - -   Scattered Clouds
12:00 PM 93.2 °F 93.3 °F 60.8 °F 34% 29.83 in 6.2 mi NE 15.0 mph - N/A   Partly Cloudy
1:00 PM 93.2 °F 94.1 °F 62.6 °F 36% 29.80 in 6.2 mi NE 16.1 mph - N/A   Scattered Clouds
2:00 PM 93.2 °F 93.3 °F 60.8 °F 34% 29.77 in 6.2 mi NE 16.1 mph - N/A   Scattered Clouds
3:00 PM 92 °F - 63 °F 28% 29.76 in 12 mi NE 18.4 mph - -   Scattered Clouds
3:00 PM 91.4 °F 92.1 °F 62.6 °F 38% 29.74 in 6.2 mi NE 18.4 mph - N/A   Partly Cloudy
4:00 PM 91.4 °F 93.2 °F 64.4 °F 41% 29.74 in 6.2 mi ENE 18.4 mph - N/A   Partly Cloudy
5:00 PM 87.8 °F 89.4 °F 64.4 °F 46% 29.75 in - ENE 17.3 mph - N/A   Clear
6:00 PM 84 °F - 64 °F 42% 29.78 in 12 mi ENE 19.6 mph - -  
6:00 PM 84.2 °F 85.6 °F 64.4 °F 51% 29.77 in - ENE 19.6 mph - N/A   Clear
7:00 PM 82.4 °F 83.9 °F 64.4 °F 54% 29.80 in - NE 11.5 mph - N/A   Clear
8:00 PM 82.4 °F 83.4 °F 62.6 °F 51% 0.29 in - ENE 18.4 mph - N/A   Clear
9:00 PM 80.6 °F 82.3 °F 64.4 °F 58% 29.84 in - ENE 11.5 mph - N/A   Clear
10:00 PM 80.6 °F 81.8 °F 62.6 °F 54% 29.86 in - NE 6.9 mph - N/A   Clear
11:00 PM 80.6 °F 81.5 °F 60.8 °F 51% 29.85 in - ENE 10.4 mph - N/A   Clear